Regional Weather Roundup
Issued by NWS

Home | Current Version | Previous Version | Graphics & Text | Print | Product List | Glossary On
Versions: 1 2 3 4 5 6 7 8 9 10 11 12 13 14 15 16 17 18 19 20 21 22 23 24 25 26 27
000
ASUS45 KBOU 300007
RWRCO

WEATHER ROUNDUP FOR COLORADO
NATIONAL WEATHER SERVICE DENVER/BOULDER CO
600 PM MDT SUN MAY 29 2016

NOTE: "FAIR" INDICATES FEW OR NO CLOUDS BELOW 12000 FEET WITH NO
SIGNIFICANT WEATHER AND/OR OBSTRUCTIONS TO VISIBILITY.

COZ001>005-013-030-031-300100-
...NORTHWEST COLORADO...

CITY           SKY/WX    TMP DP  RH WIND       PRES   REMARKS
CRAIG          FAIR      67  35  30 CALM      30.16R
HAYDEN         FAIR      59  37  44 NE15      30.18F
MEEKER         FAIR      67  36  31 E8        30.15F
MOUNT WERNER   NOT AVBL
STEAMBOAT SPGS FAIR      58  38  47 W13G23    30.20R
WALDEN         NOT AVBL
$$

COZ006>008-011-300100-
...WEST CENTRAL VALLEYS...

CITY           SKY/WX    TMP DP  RH WIND       PRES   REMARKS
GRAND JUNCTION FAIR      74  34  23 S10       30.04F
MONTROSE       FAIR      70  35  27 N9        30.14F
EAGLE          SUNNY     70  30  23 S10G17    30.17R
RIFLE          CLOUDY    70  32  24 S12G22    30.11S
DELTA          FAIR      76  28  16 SE10      30.08F
NUCLA          FAIR      73  28  19 SE21G26   30.13F
$$

COZ017>023-064>068-300100-
...SOUTHWEST COLORADO...

CITY           SKY/WX    TMP DP  RH WIND       PRES   REMARKS
DURANGO        FAIR      76  12   8 VRB7      30.09F
CORTEZ         FAIR      79  20  11 SW7       30.06F
PAGOSA SPRINGS FAIR      69  15  12 W8        30.19F
TELLURIDE      FAIR      56  27  32 W6        30.33S
WOLF CREEK PAS PTSUNNY   43  21  42 SW17G28   30.47F
$$

COZ009-010-012-014-032>034-037-058>063-300100-
...CENTRAL COLORADO...

CITY           SKY/WX    TMP DP  RH WIND       PRES   REMARKS
ASPEN          FAIR      63  32  31 SE8       30.23F
BUENA VISTA    FAIR      58  27  30 W6G17     30.24F
COPPER MTN     NOT AVBL
BERTHOUD PASS  CLOUDY    36  28  75 MISG      30.48S
COTTONWOOD PAS FAIR      54  23  30 W10G23    30.34F
GUNNISON       FAIR      61  28  29 CALM      30.26F
KREMMLING      FAIR      61  32  33 W5        30.23S
LEADVILLE      FAIR      52  26  36 NW18G26   30.35R
MONARCH PASS   FAIR      43  25  49 W20G25    30.56F
SALIDA         FAIR      69  27  21 W7        30.28F
SUNLIGHT       FAIR      50  32  50 CALM      30.43F
WILKERSON PASS PTSUNNY   48  25  40 SW9G18    30.43F
$$

COZ069>075-300100-
...SAN LUIS VALLEY/SANGRE DE CRISTO MOUNTAINS...

CITY           SKY/WX    TMP DP  RH WIND       PRES   REMARKS
ALAMOSA        FAIR      68  29  23 N10       30.19F
LA VETA PASS   FAIR      59  21  23 S6        30.35S
SAGUACHE       FAIR      64  28  25 NW8       30.23F
$$

COZ035-036-038>040-300100-
...NORTHERN COLORADO FRONT RANGE...

CITY           SKY/WX    TMP DP  RH WIND       PRES   REMARKS
DENVER INTL AP PTSUNNY   67  41  38 NW35G47   30.11R
DMNS CITY PARK   N/A     65  42  43 N12G25    30.10S
AURORA         PTSUNNY   69  40  35 NW20      30.11R
FRONT RANGE AP PTSUNNY   68  37  32 S10G22    30.09S
ERIE MUNI ARPT CLOUDY    63  48  58 SE10      30.09F
BOULDER MUN AP FAIR      64  46  52 S9        30.09F
CENTENNIAL     PTSUNNY   67  35  30 S9G20     30.09F
BROOMFIELD     PTSUNNY   61  46  59 SE10      30.15R
FORT COLLINS   FAIR      43  43 100 W5        30.07F
LONGMONT       FAIR      71  50  46 W5        30.09S
$$

COZ041-046-047-076>085-087-088-300100-
...PIKES PEAK/PALMER DIVIDE AND SOUTHERN FOOTHILLS...

CITY           SKY/WX    TMP DP  RH WIND       PRES   REMARKS
COLO. SPRINGS  PTSUNNY   67  39  35 CALM      30.13F
A. F. ACADEMY  PTSUNNY   61  37  41 W9        30.17R
SCHRIEVER AFB  NOT AVBL
ELLICOTT       FAIR     N/A N/A N/A NE10      30.09F
FALCON         FAIR      62  38  40 N3        30.17F
FORT CARSON    SUNNY     69  38  32 SW6       30.08F
LIMON          FAIR      64  46  52 W3        30.08F
MONUMENT HILL  FAIR      59  37  44 S8        30.19F
TRINIDAD       FAIR      76  29  17 S15G24    30.06F
$$

COZ042>045-048>051-090-091-300100-
...NORTHEAST COLORADO...

CITY           SKY/WX    TMP DP  RH WIND       PRES   REMARKS
GREELEY ARPT   CLOUDY    68  37  32 SW13G31   30.10R
AKRON          PTSUNNY   76  44  32 E3        30.02F
BURLINGTON     FAIR      80  41  24 W3        30.00F
WRAY           PTSUNNY   82  48  30 E8        29.97F
STERLING       FAIR      81  45  28 CALM      29.97F
HOLYOKE        NOT AVBL
FORT MORGAN    FAIR      76  43  31 CALM      30.02S
$$

COZ086-089-092>099-300100-
...SOUTHEAST COLORADO...

CITY           SKY/WX    TMP DP  RH WIND       PRES   REMARKS
PUEBLO         FAIR      78  39  24 W8        30.00F
LA JUNTA       FAIR      85  38  18 NW14      30.00R
LAMAR          LGT RAIN  70  48  45 S25G35    29.95F
SPRINGFIELD      N/A     59  54  83 SE7       30.11F
$$




USA.gov is the U.S. government's official web portal to all federal, state and local government web resources and services.